#timestamp,LO_Frequency,Hit,StdDev 
1634000415.7,286047005.9,N
1634000435.6,286047001.9,N
1634000455.4,286046999.7,N
1634000475.2,286047002.1,N
1634000495.1,286047002.0,N
1634000496.0,286047002.0,N
1634000515.8,286047001.4,N
1634000535.6,286047004.4,N
1634000555.5,286047003.5,N
1634000575.3,286047003.5,N
1634000595.2,286047003.3,N
1634000615.9,286047003.5,N
1634000635.7,286047003.5,N
1634000655.6,286047003.2,N
1634000675.4,286047001.4,N
1634000695.2,286047004.2,N
1634000715.1,286047001.6,N
1634000716.0,286047001.6,N
1634000735.8,286047001.9,N
1634000755.7,286047002.0,N
1634000775.5,286047002.2,N
1634000795.3,286047003.0,N
1634000815.2,286047003.0,N
1634000835.0,286047004.1,N
1634000835.9,286047004.1,N
1634000855.8,286047003.0,N
1634000875.6,286047005.2,Y
1634000895.4,286047002.7,P
1634000915.3,286047000.1,N
1634000935.1,286047001.6,N
1634000955.8,286047002.2,N
1634000975.7,286047003.1,N
1634000995.5,286047005.4,Y
1634001015.4,286047002.2,P
1634001035.2,286047000.2,P
1634001055.0,286047000.8,N
1634001055.9,286047000.8,N
1634001075.8,286046998.4,N
1634001095.6,286046998.5,N
1634001115.5,286047000.9,N
1634001135.3,286047000.7,N
1634001155.1,286047000.7,N
1634001175.9,286046998.2,N
1634001195.7,286047000.8,N
1634001215.5,286046998.1,N
1634001235.4,286046998.3,N
1634001255.2,286046999.3,N
1634001275.1,286046999.6,N
1634001276.0,286046999.6,N
1634001295.8,286046998.5,N
1634001315.6,286047000.2,N
1634001335.5,286047000.7,N
1634001355.3,286047001.1,N
1634001375.1,286046998.1,N
1634001395.9,286046998.9,N
1634001415.7,286046998.1,N
1634001435.6,286046998.5,N
1634001455.4,286046998.3,N
1634001475.2,286046999.8,N
1634001495.1,286047002.5,N
1634001496.0,286047002.5,N
1634001515.8,286047000.8,N
1634001535.6,286046998.2,N
1634001555.5,286047000.9,N
1634001575.3,286047001.2,N
1634001595.2,286047001.0,N
1634001615.9,286046998.1,N
1634001635.7,286046999.9,N
1634001655.6,286047002.2,N
1634001675.4,286047000.1,N
1634001695.2,286047001.9,N
1634001715.1,286047001.7,N
1634001716.0,286047001.7,N
1634001735.8,286047003.9,N
1634001755.7,286047001.7,N
1634001775.5,286047001.5,N
1634001795.3,286047001.3,N
1634001815.2,286047004.3,N
1634001835.0,286047004.4,N
1634001835.9,286047004.4,N
1634001855.8,286047003.6,N
1634001875.6,286047003.0,N
1634001895.4,286047001.8,N
1634001915.3,286047004.2,N
1634001935.1,286047006.0,Y
1634001955.9,286047003.6,P
1634001975.7,286047003.7,P
1634001995.5,286047004.3,P
1634002015.4,286047001.4,N
1634002035.2,286047004.4,Y
1634002055.0,286046999.0,P
1634002055.9,286046999.0,N
1634002075.8,286046998.4,N
1634002095.6,286046998.2,N
1634002115.5,286046999.9,N
1634002135.3,286046999.7,N
1634002155.1,286047000.6,N
1634002175.9,286046998.6,N
1634002195.7,286046998.5,N
1634002215.6,286046998.1,N
1634002235.4,286047000.1,N
1634002255.2,286047002.7,N
1634002275.1,286047002.5,N
1634002276.0,286047002.5,N
1634002295.8,286046999.7,N
1634002315.6,286047002.7,N
1634002335.5,286047000.1,N
1634002355.3,286047001.9,N
1634002375.2,286047002.1,N
1634002395.9,286047002.3,N
1634002415.7,286047000.1,N
1634002435.6,286047002.4,N
1634002455.4,286046999.8,N
1634002475.3,286047002.3,N
1634002495.1,286047002.6,N
1634002496.0,286047002.6,N
1634002515.8,286047001.0,N
1634002535.7,286047000.9,N
1634002555.5,286047001.1,N
1634002575.4,286047001.0,N
1634002595.2,286047000.7,N
1634002615.0,286046999.9,N
1634002615.9,286046999.9,N
1634002635.8,286047002.6,N
1634002655.6,286047000.1,N
1634002675.4,286047000.7,N
1634002695.3,286047000.5,N
1634002715.1,286047000.5,N
1634002735.9,286046998.8,N
1634002755.7,286046998.1,N
1634002775.5,286047000.2,N
1634002795.4,286046999.8,N
1634002815.2,286047001.1,N
1634002835.0,286047001.0,N
1634002836.0,286047001.0,N
1634002855.8,286047002.8,N
1634002875.6,286047002.7,N
1634002895.5,286046999.9,N
1634002915.3,286047001.8,N
1634002935.2,286047003.6,Y
1634002955.9,286047003.7,P
1634002975.7,286047006.0,P
1634002995.6,286047003.1,N
1634003015.4,286047003.8,N
1634003035.2,286047003.5,N
1634003055.1,286047005.9,Y
1634003075.8,286047001.0,P
1634003095.7,286047000.9,N
1634003115.5,286046998.8,N
1634003135.4,286046996.6,N
1634003155.2,286046999.5,N
1634003175.0,286046999.5,N
1634003176.0,286046999.5,N
1634003195.8,286046999.2,N
1634003215.6,286046997.0,N
1634003235.5,286046997.5,N
1634003255.3,286046997.4,N
1634003275.2,286046996.5,N
1634003295.9,286046999.4,N
1634003315.7,286046996.5,N
1634003335.6,286046997.6,N
1634003355.4,286046995.1,N
1634003375.3,286046997.8,N
1634003395.1,286046996.6,N
1634003396.0,286046996.6,N
1634003415.8,286046997.2,N
1634003435.7,286046997.1,N
1634003455.5,286046997.9,N
1634003475.4,286046993.4,Y
1634003495.2,286046995.5,P
1634003515.0,286046997.1,N
1634003515.9,286046997.1,N
1634003535.8,286046999.6,N
1634003555.6,286047000.8,N
1634003575.4,286047000.1,N
1634003595.3,286047000.1,N
1634003615.1,286047000.4,N
1634003635.9,286047002.7,N
1634003655.7,286047002.4,N
1634003675.5,286047000.1,N
1634003695.4,286046999.7,N
1634003715.2,286047001.5,N
1634003735.0,286047000.0,N
1634003735.9,286047000.0,N
1634003755.8,286047002.5,N
1634003775.6,286047001.9,N
1634003795.5,286046999.7,N
1634003815.3,286046999.9,N
1634003835.1,286047000.3,N
1634003855.9,286047000.1,N
1634003875.7,286047000.5,N
1634003895.6,286047000.1,N
1634003915.4,286047000.1,N
1634003935.2,286046998.3,N
1634003955.1,286046999.4,N
1634003956.0,286046999.4,N
1634003975.8,286046999.6,N
1634003995.6,286046997.2,N
